When you browse on this site, cookies collect data to enhance your experience and personalize the content and advertising you see.
Visit our Privacy Policy to learn more. By continuing to use the site, you agree to this use of cookies and data.
  • In Denmark
  • List of Countries
  • For 7 days
  • Water Temperature
  • Weather Map
  • Weather Widgets
  • user-avatar
    Login

    Hourly Weather Perth

    Today, 21 January, Tuesday

    Time Temperature Precipitation Wind Pressure Humidity
    00:00 +20°C° 0 mm 5 mps 757 mmHg 78%
    01:00 +19°C° 0 mm 4 mps 757 mmHg 79%
    02:00 +18°C° 0 mm 3 mps 757 mmHg 82%
    03:00 +17°C° 0 mm 4 mps 757 mmHg 83%
    04:00 +17°C° 0 mm 4 mps 757 mmHg 84%
    05:00 +17°C° 0 mm 4 mps 757 mmHg 84%
    06:00 +18°C° 0 mm 4 mps 758 mmHg 81%
    07:00 +19°C° 0 mm 4 mps 758 mmHg 78%
    08:00 +21°C° 0 mm 3 mps 758 mmHg 74%
    09:00 +21°C° 0 mm 4 mps 758 mmHg 71%
    10:00 +22°C° 0 mm 4 mps 758 mmHg 68%
    11:00 +23°C° 0 mm 5 mps 758 mmHg 64%
    12:00 +25°C° 0 mm 5 mps 757 mmHg 61%
    13:00 +26°C° 0 mm 6 mps 757 mmHg 58%
    14:00 +26°C° 0 mm 6 mps 757 mmHg 54%
    15:00 +26°C° 0 mm 7 mps 757 mmHg 54%
    16:00 +24°C° 0 mm 7 mps 756 mmHg 54%
    17:00 +24°C° 0 mm 7 mps 756 mmHg 54%
    18:00 +22°C° 0 mm 7 mps 757 mmHg 58%
    19:00 +21°C° 0 mm 6 mps 757 mmHg 62%
    20:00 +20°C° 0 mm 5 mps 758 mmHg 66%
    21:00 +19°C° 0 mm 6 mps 758 mmHg 65%
    22:00 +19°C° 0 mm 6 mps 759 mmHg 64%
    23:00 +17°C° 0 mm 6 mps 759 mmHg 62%

    Tomorrow, 22 January, Wednesday

    Time Temperature Precipitation Wind Pressure Humidity
    00:00 +16°C° 0 mm 5 mps 759 mmHg 65%
    01:00 +15°C° 0 mm 5 mps 759 mmHg 68%
    02:00 +14°C° 0 mm 4 mps 759 mmHg 70%
    03:00 +14°C° 0 mm 4 mps 759 mmHg 72%
    04:00 +13°C° 0 mm 4 mps 759 mmHg 73%
    05:00 +13°C° 0 mm 3 mps 760 mmHg 75%
    06:00 +14°C° 0 mm 3 mps 760 mmHg 69%
    07:00 +17°C° 0 mm 4 mps 760 mmHg 62%
    08:00 +18°C° 0 mm 4 mps 761 mmHg 56%
    09:00 +20°C° 0 mm 4 mps 761 mmHg 53%
    10:00 +22°C° 0 mm 4 mps 760 mmHg 50%
    11:00 +23°C° 0 mm 4 mps 760 mmHg 47%
    12:00 +25°C° 0 mm 5 mps 760 mmHg 49%
    13:00 +24°C° 0 mm 6 mps 760 mmHg 50%
    14:00 +26°C° 0 mm 7 mps 759 mmHg 51%
    15:00 +24°C° 0 mm 7 mps 759 mmHg 53%
    16:00 +24°C° 0 mm 7 mps 759 mmHg 56%
    17:00 +24°C° 0 mm 7 mps 759 mmHg 58%
    18:00 +22°C° 0 mm 7 mps 759 mmHg 63%
    19:00 +21°C° 0 mm 6 mps 759 mmHg 69%
    20:00 +20°C° 0 mm 6 mps 760 mmHg 74%
    21:00 +20°C° 0 mm 5 mps 760 mmHg 76%
    22:00 +19°C° 0 mm 5 mps 760 mmHg 77%
    23:00 +19°C° 0 mm 5 mps 761 mmHg 79%

    Day after tomorrow, 23 January, Thursday

    Time Temperature Precipitation Wind Pressure Humidity
    00:00 +19°C° 0 mm 4 mps 761 mmHg 79%
    01:00 +18°C° 0 mm 4 mps 760 mmHg 79%
    02:00 +17°C° 0 mm 4 mps 760 mmHg 79%
    03:00 +17°C° 0 mm 3 mps 760 mmHg 80%
    04:00 +17°C° 0 mm 3 mps 760 mmHg 81%
    05:00 +17°C° 0 mm 2 mps 761 mmHg 82%
    06:00 +18°C° 0 mm 3 mps 761 mmHg 76%
    07:00 +20°C° 0 mm 3 mps 761 mmHg 70%
    08:00 +21°C° 0 mm 3 mps 761 mmHg 64%
    09:00 +24°C° 0 mm 3 mps 761 mmHg 58%
    10:00 +26°C° 0 mm 3 mps 761 mmHg 52%
    11:00 +28°C° 0 mm 3 mps 761 mmHg 46%
    12:00 +28°C° 0 mm 4 mps 760 mmHg 46%
    13:00 +29°C° 0 mm 5 mps 760 mmHg 47%
    14:00 +29°C° 0 mm 6 mps 759 mmHg 48%
    15:00 +28°C° 0 mm 6 mps 759 mmHg 50%
    16:00 +27°C° 0 mm 6 mps 759 mmHg 52%
    17:00 +27°C° 0 mm 6 mps 759 mmHg 55%
    18:00 +24°C° 0 mm 6 mps 759 mmHg 60%
    19:00 +23°C° 0 mm 5 mps 759 mmHg 66%
    20:00 +21°C° 0 mm 5 mps 759 mmHg 72%
    21:00 +21°C° 0 mm 4 mps 760 mmHg 72%
    22:00 +21°C° 0 mm 3 mps 760 mmHg 72%
    23:00 +20°C° 0 mm 3 mps 761 mmHg 72%

    24 January, Friday

    Time Temperature Precipitation Wind Pressure Humidity
    00:00 +20°C° 0 mm 3 mps 760 mmHg 69%
    01:00 +20°C° 0 mm 3 mps 760 mmHg 66%
    02:00 +20°C° 0 mm 3 mps 760 mmHg 63%
    03:00 +19°C° 0 mm 3 mps 760 mmHg 68%
    04:00 +19°C° 0 mm 3 mps 760 mmHg 72%
    05:00 +18°C° 0 mm 3 mps 761 mmHg 77%
    06:00 +20°C° 0 mm 3 mps 761 mmHg 71%
    07:00 +21°C° 0 mm 3 mps 761 mmHg 66%
    08:00 +22°C° 0 mm 3 mps 761 mmHg 61%
    09:00 +27°C° 0 mm 2 mps 761 mmHg 51%
    10:00 +30°C° 0 mm 2 mps 761 mmHg 41%
    11:00 +33°C° 0 mm 1 mps 761 mmHg 31%
    12:00 +34°C° 0 mm 3 mps 760 mmHg 32%
    13:00 +35°C° 0 mm 4 mps 759 mmHg 32%
    14:00 +35°C° 0 mm 6 mps 759 mmHg 33%
    15:00 +34°C° 0 mm 6 mps 759 mmHg 34%
    16:00 +33°C° 0 mm 6 mps 758 mmHg 36%
    17:00 +32°C° 0 mm 6 mps 758 mmHg 37%
    18:00 +29°C° 0 mm 6 mps 758 mmHg 41%
    19:00 +27°C° 0 mm 5 mps 759 mmHg 44%
    20:00 +25°C° 0 mm 5 mps 759 mmHg 47%
    21:00 +25°C° 0 mm 4 mps 759 mmHg 49%
    22:00 +24°C° 0 mm 3 mps 759 mmHg 52%
    23:00 +23°C° 0 mm 2 mps 759 mmHg 54%

    25 January, Saturday

    Time Temperature Precipitation Wind Pressure Humidity
    00:00 +23°C° 0 mm 2 mps 759 mmHg 54%
    01:00 +22°C° 0 mm 3 mps 759 mmHg 54%
    02:00 +22°C° 0 mm 3 mps 759 mmHg 53%
    03:00 +21°C° 0 mm 3 mps 759 mmHg 59%
    04:00 +21°C° 0 mm 3 mps 759 mmHg 65%
    05:00 +20°C° 0 mm 3 mps 759 mmHg 71%
    06:00 +23°C° 0 mm 2 mps 759 mmHg 65%
    07:00 +24°C° 0 mm 2 mps 759 mmHg 59%
    08:00 +26°C° 0 mm 2 mps 759 mmHg 53%
    09:00 +29°C° 0 mm 2 mps 759 mmHg 44%
    10:00 +32°C° 0 mm 2 mps 758 mmHg 36%
    11:00 +36°C° 0 mm 2 mps 758 mmHg 27%
    12:00 +36°C° 0 mm 3 mps 757 mmHg 28%
    13:00 +36°C° 0 mm 5 mps 757 mmHg 28%
    14:00 +36°C° 0 mm 6 mps 756 mmHg 29%
    15:00 +35°C° 0 mm 6 mps 756 mmHg 32%
    16:00 +34°C° 0 mm 6 mps 756 mmHg 36%
    17:00 +33°C° 0 mm 6 mps 756 mmHg 39%
    18:00 +30°C° 0 mm 6 mps 756 mmHg 46%
    19:00 +27°C° 0 mm 5 mps 756 mmHg 53%
    20:00 +25°C° 0 mm 4 mps 757 mmHg 60%
    21:00 +23°C° 0 mm 4 mps 757 mmHg 61%
    22:00 +24°C° 0 mm 3 mps 757 mmHg 63%
    23:00 +22°C° 0 mm 3 mps 758 mmHg 65%

    26 January, Sunday

    Time Temperature Precipitation Wind Pressure Humidity
    00:00 +21°C° 0 mm 3 mps 757 mmHg 68%
    01:00 +21°C° 0 mm 2 mps 757 mmHg 71%
    02:00 +20°C° 0 mm 2 mps 757 mmHg 73%
    03:00 +20°C° 0 mm 2 mps 757 mmHg 76%
    04:00 +19°C° 0 mm 2 mps 757 mmHg 78%
    05:00 +19°C° 0 mm 2 mps 757 mmHg 81%
    06:00 +20°C° 0 mm 2 mps 757 mmHg 74%
    07:00 +23°C° 0 mm 2 mps 757 mmHg 67%
    08:00 +24°C° 0 mm 2 mps 757 mmHg 61%
    09:00 +26°C° 0 mm 3 mps 757 mmHg 54%
    10:00 +28°C° 0 mm 4 mps 757 mmHg 47%
    11:00 +32°C° 0 mm 4 mps 757 mmHg 41%
    12:00 +32°C° 0 mm 5 mps 756 mmHg 40%
    13:00 +32°C° 0 mm 6 mps 756 mmHg 40%
    14:00 +32°C° 0 mm 7 mps 756 mmHg 39%
    15:00 +30°C° 0 mm 7 mps 755 mmHg 45%
    16:00 +29°C° 0 mm 7 mps 755 mmHg 50%
    17:00 +29°C° 0 mm 7 mps 755 mmHg 56%
    18:00 +27°C° 0 mm 6 mps 756 mmHg 61%
    19:00 +26°C° 0 mm 6 mps 756 mmHg 66%
    20:00 +23°C° 0 mm 6 mps 757 mmHg 72%
    21:00 +23°C° 0 mm 5 mps 757 mmHg 75%
    22:00 +22°C° 0 mm 5 mps 758 mmHg 78%
    23:00 +21°C° 0 mm 4 mps 758 mmHg 80%
    Show more